QPF
0.00 0.00 0.00 0.00 0.00 0.00 0.00 0.00 0.00 0.00 0.00 0.00 0.00 0.00 0.00 0.00 0.00 0.00 0.00 0.00 0.00 0.00 0.00 0.00 0.00 0.01 0.01 0.01 0.01 0.01 0.01 0.00 0.00 0.00 0.01 0.01 0.01 0.01 0.01 0.01 0.00 0.00 0.00
0.00 0.00 0.00 0.00 0.00 0.00 0.00 0.00 0.00 0.00 0.00 0.00 0.00 0.00 0.00 0.00 0.00 0.00 0.00 0.00 0.00 0.00 0.00 0.00 0.00 0.01 0.02 0.03 0.03 0.03 0.03 0.02 0.01 0.01 0.01 0.01 0.01 0.02 0.02 0.02 0.02 0.01 0.01
0.00 0.00 0.00 0.00 0.00 0.00 0.00 0.00 0.00 0.00 0.00 0.00 0.00 0.00 0.00 0.00 0.00 0.00 0.00 0.00 0.00 0.00 0.00 0.00 0.00 0.01 0.01 0.02 0.04 0.05 0.05 0.05 0.04 0.04 0.03 0.02 0.02 0.02 0.03 0.03 0.04 0.03 0.03
0.00 0.00 0.00 0.00 0.00 0.00 0.00 0.00 0.00 0.00 0.00 0.00 0.00 0.00 0.00 0.00 0.00 0.00 0.00 0.00 0.00 0.00 0.00 0.00 0.00 0.00 0.01 0.01 0.02 0.03 0.05 0.06 0.07 0.07 0.07 0.06 0.05 0.04 0.04 0.05 0.06 0.06 0.06
0.00 0.00 0.00 0.00 0.00 0.00 0.00 0.00 0.00 0.00 0.00 0.00 0.00 0.00 0.00 0.00 0.00 0.00 0.00 0.00 0.00 0.00 0.00 0.00 0.00 0.00 0.01 0.01 0.01 0.02 0.04 0.06 0.07 0.08 0.09 0.10 0.10 0.10 0.10 0.09 0.09 0.08 0.09
0.00 0.00 0.00 0.00 0.00 0.00 0.00 0.00 0.00 0.00 0.00 0.00 0.00 0.00 0.00 0.00 0.00 0.00 0.00 0.00 0.00 0.00 0.00 0.00 0.00 0.00 0.00 0.01 0.02 0.02 0.03 0.05 0.06 0.07 0.09 0.11 0.12 0.14 0.15 0.15 0.14 0.13 0.12
0.00 0.00 0.00 0.00 0.00 0.00 0.00 0.00 0.00 0.00 0.00 0.00 0.00 0.00 0.00 0.00 0.00 0.00 0.00 0.00 0.00 0.00 0.00 0.00 0.00 0.00 0.01 0.01 0.02 0.02 0.02 0.04 0.05 0.07 0.08 0.11 0.13 0.16 0.19 0.21 0.21 0.21 0.20
0.00 0.00 0.00 0.00 0.00 0.00 0.00 0.00 0.00 0.00 0.00 0.00 0.00 0.00 0.00 0.00 0.00 0.00 0.00 0.00 0.00 0.00 0.00 0.00 0.00 0.00 0.01 0.01 0.01 0.01 0.01 0.02 0.03 0.05 0.08 0.10 0.13 0.16 0.19 0.22 0.25 0.26 0.26
0.00 0.00 0.00 0.00 0.00 0.00 0.00 0.00 0.00 0.00 0.00 0.00 0.00 0.00 0.00 0.00 0.00 0.00 0.00 0.00 0.00 0.00 0.00 0.00 0.00 0.00 0.00 0.00 0.00 0.00 0.01 0.01 0.02 0.03 0.05 0.07 0.09 0.13 0.18 0.22 0.25 0.27 0.29
0.00 0.00 0.00 0.00 0.00 0.00 0.00 0.00 0.00 0.00 0.00 0.00 0.00 0.00 0.00 0.00 0.00 0.00 0.00 0.00 0.00 0.00 0.00 0.00 0.00 0.00 0.00 0.00 0.00 0.00 0.00 0.01 0.01 0.02 0.03 0.05 0.08 0.11 0.16 0.21 0.24 0.28 0.30
0.00 0.00 0.00 0.00 0.00 0.00 0.00 0.00 0.00 0.00 0.00 0.00 0.00 0.00 0.00 0.00 0.00 0.00 0.00 0.00 0.00 0.00 0.00 0.00 0.00 0.00 0.00 0.00 0.00 0.00 0.00 0.00 0.01 0.01 0.01 0.02 0.04 0.07 0.10 0.14 0.19 0.25 0.30
0.00 0.00 0.00 0.00 0.00 0.00 0.00 0.00 0.00 0.00 0.00 0.00 0.00 0.00 0.00 0.00 0.00 0.00 0.00 0.00 0.00 0.00 0.00 0.00 0.00 0.00 0.00 0.00 0.00 0.00 0.00 0.00 0.00 0.00 0.00 0.00 0.01 0.02 0.03 0.05 0.08 0.13 0.21
0.00 0.00 0.00 0.00 0.00 0.00 0.00 0.00 0.00 0.00 0.00 0.00 0.00 0.00 0.00 0.00 0.00 0.00 0.00 0.00 0.00 0.00 0.00 0.00 0.00 0.00 0.00 0.00 0.00 0.00 0.00 0.00 0.00 0.00 0.00 0.00 0.00 0.01 0.01 0.01 0.02 0.03 0.06
0.00 0.00 0.00 0.00 0.00 0.00 0.00 0.00 0.00 0.00 0.00 0.00 0.00 0.00 0.00 0.00 0.00 0.00 0.00 0.00 0.00 0.00 0.00 0.00 0.00 0.00 0.00 0.00 0.00 0.00 0.00 0.00 0.00 0.00 0.00 0.00 0.00 0.00 0.00 0.00 0.00 0.01 0.01
0.00 0.00 0.00 0.00 0.00 0.00 0.00 0.00 0.00 0.00 0.00 0.00 0.00 0.00 0.00 0.00 0.00 0.00 0.00 0.00 0.00 0.00 0.00 0.00 0.00 0.00 0.00 0.00 0.00 0.00 0.00 0.00 0.00 0.00 0.00 0.00 0.00 0.00 0.00 0.00 0.00 0.01 0.01
0.00 0.00 0.00 0.00 0.00 0.00 0.00 0.00 0.00 0.00 0.00 0.00 0.00 0.00 0.00 0.00 0.00 0.00 0.00 0.00 0.00 0.00 0.00 0.00 0.00 0.00 0.00 0.00 0.00 0.00 0.00 0.00 0.00 0.00 0.00 0.00 0.00 0.00 0.00 0.00 0.00 0.01 0.01
0.00 0.00 0.00 0.00 0.00 0.00 0.00 0.00 0.00 0.00 0.00 0.00 0.00 0.00 0.00 0.00 0.00 0.00 0.00 0.00 0.00 0.00 0.00 0.00 0.00 0.00 0.00 0.00 0.00 0.00 0.00 0.00 0.00 0.00 0.00 0.00 0.00 0.00 0.01 0.01 0.01 0.01 0.01
0.00 0.00 0.00 0.00 0.00 0.00 0.00 0.00 0.00 0.00 0.00 0.00 0.00 0.00 0.00 0.00 0.00 0.00 0.00 0.00 0.00 0.00 0.01 0.01 0.00 0.00 0.00 0.00 0.00 0.00 0.00 0.00 0.00 0.00 0.00 0.00 0.01 0.01 0.01 0.01 0.01 0.01 0.01
0.00 0.00 0.00 0.00 0.00 0.00 0.00 0.00 0.00 0.00 0.00 0.00 0.00 0.00 0.00 0.00 0.00 0.00 0.00 0.00 0.00 0.01 0.02 0.02 0.01 0.00 0.00 0.00 0.00 0.00 0.00 0.00 0.00 0.00 0.00 0.00 0.00 0.01 0.01 0.02 0.02 0.02 0.02
0.00 0.00 0.00 0.00 0.00 0.00 0.00 0.00 0.00 0.00 0.00 0.00 0.00 0.00 0.00 0.00 0.00 0.00 0.00 0.01 0.01 0.02 0.02 0.02 0.02 0.02 0.01 0.01 0.01 0.01 0.00 0.00 0.00 0.00 0.00 0.00 0.00 0.01 0.01 0.02 0.02 0.02 0.02
0.00 0.00 0.00 0.00 0.00 0.00 0.00 0.00 0.00 0.00 0.00 0.00 0.00 0.00 0.00 0.00 0.00 0.00 0.01 0.02 0.02 0.03 0.04 0.04 0.04 0.03 0.02 0.01 0.01 0.01 0.01 0.00 0.00 0.00 0.00 0.00 0.01 0.01 0.01 0.01 0.01 0.01 0.02
0.00 0.00 0.00 0.00 0.00 0.00 0.00 0.00 0.00 0.00 0.00 0.00 0.00 0.00 0.00 0.00 0.00 0.01 0.01 0.02 0.03 0.04 0.05 0.06 0.06 0.04 0.02 0.01 0.01 0.01 0.01 0.02 0.02 0.01 0.02 0.01 0.01 0.01 0.01 0.01 0.01 0.02 0.03
0.00 0.00 0.00 0.00 0.00 0.00 0.00 0.00 0.00 0.00 0.00 0.00 0.00 0.00 0.00 0.00 0.00 0.00 0.01 0.02 0.02 0.04 0.04 0.04 0.04 0.02 0.01 0.01 0.02 0.03 0.04 0.05 0.04 0.01 0.03 0.03 0.02 0.02 0.01 0.02 0.02 0.03 0.03
0.00 0.00 0.00 0.00 0.00 0.00 0.00 0.00 0.00 0.00 0.00 0.00 0.00 0.00 0.00 0.00 0.00 0.01 0.02 0.02 0.02 0.01 0.01 0.01 0.01 0.01 0.01 0.01 0.03 0.06 0.07 0.06 0.03 0.01 0.03 0.06 0.03 0.02 0.01 0.01 0.01 0.02 0.03
0.00 0.00 0.00 0.00 0.00 0.00 0.00 0.00 0.00 0.00 0.00 0.00 0.00 0.00 0.00 0.00 0.01 0.03 0.04 0.04 0.02 0.01 0.00 0.01 0.01 0.01 0.01 0.01 0.02 0.04 0.08 0.09 0.05 0.02 0.01 0.04 0.03 0.02 0.01 0.01 0.01 0.03 0.06
0.00 0.00 0.00 0.00 0.00 0.00 0.00 0.00 0.00 0.00 0.00 0.00 0.00 0.00 0.01 0.01 0.02 0.04 0.04 0.03 0.02 0.00 0.01 0.01 0.00 0.00 0.00 0.00 0.01 0.04 0.11 0.16 0.10 0.04 0.01 0.04 0.05 0.04 0.05 0.01 0.01 0.04 0.06
MSLP
1011.85 1011.96 1012.03 1012.07 1012.08 1012.08 1012.07 1012.05 1012.00 1011.93 1011.82 1011.65 1011.44 1011.19 1010.91 1010.61 1010.33 1010.07 1009.84 1009.66 1009.52 1009.41 1009.33 1009.25 1009.17 1009.08 1008.97 1008.85 1008.73 1008.61 1008.50 1008.42 1008.37 1008.36 1008.39 1008.46 1008.55 1008.66 1008.78 1008.89 1009.00 1009.10 1009.21
1011.82 1011.93 1012.02 1012.07 1012.11 1012.14 1012.13 1012.11 1012.05 1011.94 1011.78 1011.58 1011.32 1011.03 1010.72 1010.40 1010.08 1009.79 1009.53 1009.30 1009.11 1008.95 1008.81 1008.68 1008.55 1008.42 1008.28 1008.12 1007.96 1007.80 1007.66 1007.54 1007.45 1007.41 1007.41 1007.45 1007.51 1007.59 1007.67 1007.75 1007.82 1007.89 1007.98
1011.97 1012.08 1012.17 1012.25 1012.31 1012.36 1012.37 1012.33 1012.25 1012.11 1011.90 1011.65 1011.35 1011.02 1010.67 1010.32 1009.97 1009.64 1009.33 1009.06 1008.81 1008.59 1008.39 1008.21 1008.03 1007.85 1007.67 1007.48 1007.28 1007.07 1006.88 1006.71 1006.57 1006.47 1006.41 1006.39 1006.41 1006.44 1006.48 1006.51 1006.55 1006.58 1006.64
1012.30 1012.40 1012.50 1012.59 1012.68 1012.73 1012.75 1012.71 1012.60 1012.43 1012.18 1011.88 1011.54 1011.17 1010.78 1010.40 1010.02 1009.65 1009.30 1008.97 1008.66 1008.37 1008.11 1007.87 1007.65 1007.43 1007.21 1006.98 1006.73 1006.48 1006.23 1005.99 1005.78 1005.60 1005.46 1005.36 1005.31 1005.28 1005.26 1005.24 1005.23 1005.23 1005.24
1012.77 1012.86 1012.96 1013.07 1013.17 1013.24 1013.26 1013.22 1013.09 1012.88 1012.60 1012.26 1011.88 1011.48 1011.07 1010.65 1010.24 1009.83 1009.43 1009.04 1008.67 1008.32 1008.00 1007.70 1007.43 1007.17 1006.91 1006.65 1006.37 1006.07 1005.75 1005.43 1005.12 1004.85 1004.61 1004.42 1004.28 1004.17 1004.09 1004.02 1003.95 1003.89 1003.86
1013.32 1013.40 1013.50 1013.62 1013.73 1013.82 1013.85 1013.80 1013.67 1013.44 1013.14 1012.77 1012.37 1011.95 1011.51 1011.07 1010.62 1010.17 1009.72 1009.27 1008.83 1008.42 1008.03 1007.68 1007.37 1007.07 1006.79 1006.50 1006.18 1005.83 1005.45 1005.05 1004.65 1004.26 1003.92 1003.62 1003.38 1003.19 1003.03 1002.90 1002.78 1002.66 1002.56
1013.90 1013.96 1014.06 1014.19 1014.32 1014.42 1014.46 1014.42 1014.28 1014.05 1013.74 1013.36 1012.95 1012.52 1012.07 1011.61 1011.13 1010.64 1010.14 1009.63 1009.12 1008.64 1008.19 1007.79 1007.43 1007.10 1006.80 1006.48 1006.13 1005.74 1005.30 1004.83 1004.33 1003.85 1003.40 1003.00 1002.66 1002.38 1002.15 1001.95 1001.77 1001.59 1001.41
1014.44 1014.50 1014.60 1014.73 1014.86 1014.97 1015.02 1014.99 1014.86 1014.64 1014.34 1013.97 1013.57 1013.14 1012.69 1012.22 1011.72 1011.19 1010.63 1010.06 1009.48 1008.93 1008.41 1007.96 1007.56 1007.20 1006.87 1006.54 1006.17 1005.75 1005.27 1004.73 1004.16 1003.58 1003.04 1002.54 1002.11 1001.76 1001.46 1001.20 1000.96 1000.71 1000.46
1014.92 1014.97 1015.06 1015.19 1015.33 1015.44 1015.50 1015.48 1015.36 1015.15 1014.87 1014.52 1014.14 1013.73 1013.28 1012.81 1012.29 1011.73 1011.12 1010.49 1009.84 1009.22 1008.64 1008.13 1007.69 1007.31 1006.96 1006.61 1006.23 1005.79 1005.28 1004.70 1004.07 1003.43 1002.80 1002.23 1001.73 1001.31 1000.95 1000.64 1000.35 1000.05 999.73
1015.33 1015.37 1015.45 1015.56 1015.69 1015.79 1015.85 1015.83 1015.72 1015.53 1015.27 1014.95 1014.59 1014.20 1013.77 1013.30 1012.77 1012.18 1011.53 1010.85 1010.14 1009.46 1008.82 1008.26 1007.77 1007.36 1006.99 1006.63 1006.24 1005.79 1005.27 1004.66 1004.00 1003.31 1002.64 1002.01 1001.46 1000.99 1000.59 1000.24 999.91 999.56 999.18
1015.68 1015.70 1015.76 1015.86 1015.96 1016.04 1016.07 1016.04 1015.93 1015.75 1015.50 1015.21 1014.87 1014.51 1014.09 1013.63 1013.10 1012.49 1011.82 1011.09 1010.34 1009.60 1008.91 1008.30 1007.77 1007.32 1006.93 1006.56 1006.16 1005.70 1005.17 1004.56 1003.88 1003.18 1002.48 1001.82 1001.24 1000.73 1000.30 999.92 999.55 999.17 998.74
1016.00 1016.00 1016.03 1016.09 1016.15 1016.19 1016.19 1016.13 1016.00 1015.81 1015.57 1015.29 1014.97 1014.62 1014.23 1013.77 1013.24 1012.63 1011.94 1011.19 1010.41 1009.63 1008.90 1008.24 1007.68 1007.19 1006.77 1006.37 1005.96 1005.50 1004.97 1004.36 1003.68 1002.97 1002.26 1001.59 1000.98 1000.46 1000.00 999.59 999.19 998.78 998.32
1016.31 1016.28 1016.28 1016.28 1016.29 1016.27 1016.22 1016.12 1015.96 1015.75 1015.50 1015.22 1014.91 1014.56 1014.18 1013.73 1013.21 1012.60 1011.91 1011.15 1010.35 1009.55 1008.79 1008.10 1007.50 1006.97 1006.51 1006.09 1005.65 1005.17 1004.63 1004.02 1003.35 1002.64 1001.93 1001.26 1000.64 1000.09 999.60 999.17 998.75 998.31 997.83
1016.61 1016.56 1016.51 1016.46 1016.40 1016.32 1016.21 1016.05 1015.85 1015.61 1015.33 1015.04 1014.72 1014.38 1013.99 1013.55 1013.04 1012.44 1011.75 1011.00 1010.20 1009.40 1008.62 1007.90 1007.25 1006.69 1006.18 1005.71 1005.23 1004.73 1004.17 1003.56 1002.88 1002.18 1001.47 1000.79 1000.15 999.58 999.06 998.59 998.14 997.67 997.17
1016.89 1016.81 1016.72 1016.61 1016.49 1016.35 1016.17 1015.96 1015.71 1015.43 1015.13 1014.81 1014.48 1014.12 1013.73 1013.29 1012.78 1012.19 1011.52 1010.77 1009.99 1009.18 1008.40 1007.65 1006.97 1006.36 1005.79 1005.26 1004.74 1004.19 1003.60 1002.97 1002.28 1001.57 1000.85 1000.16 999.50 998.90 998.35 997.83 997.34 996.84 996.32
1017.14 1017.03 1016.89 1016.74 1016.56 1016.36 1016.13 1015.87 1015.58 1015.26 1014.93 1014.59 1014.23 1013.86 1013.45 1013.00 1012.48 1011.90 1011.24 1010.51 1009.73 1008.94 1008.14 1007.38 1006.66 1005.99 1005.37 1004.77 1004.18 1003.57 1002.94 1002.26 1001.55 1000.82 1000.09 999.38 998.69 998.05 997.45 996.89 996.35 995.81 995.26
1017.32 1017.18 1017.01 1016.81 1016.59 1016.34 1016.07 1015.78 1015.46 1015.12 1014.76 1014.39 1014.01 1013.61 1013.18 1012.70 1012.18 1011.59 1010.93 1010.21 1009.45 1008.66 1007.86 1007.08 1006.32 1005.60 1004.91 1004.24 1003.57 1002.90 1002.20 1001.47 1000.73 999.97 999.21 998.46 997.75 997.07 996.42 995.80 995.20 994.62 994.04
1017.42 1017.24 1017.04 1016.80 1016.55 1016.28 1015.98 1015.67 1015.33 1014.98 1014.61 1014.22 1013.81 1013.38 1012.91 1012.41 1011.86 1011.26 1010.59 1009.88 1009.12 1008.33 1007.53 1006.73 1005.95 1005.17 1004.42 1003.67 1002.93 1002.17 1001.40 1000.62 999.83 999.03 998.24 997.47 996.71 995.99 995.30 994.63 993.98 993.35 992.74
1017.42 1017.21 1016.98 1016.71 1016.44 1016.15 1015.84 1015.52 1015.18 1014.82 1014.44 1014.03 1013.60 1013.14 1012.64 1012.10 1011.52 1010.89 1010.21 1009.49 1008.73 1007.94 1007.14 1006.33 1005.51 1004.70 1003.88 1003.07 1002.25 1001.42 1000.59 999.74 998.90 998.06 997.23 996.43 995.64 994.88 994.15 993.44 992.75 992.08 991.43
1017.34 1017.10 1016.83 1016.55 1016.25 1015.95 1015.64 1015.32 1014.98 1014.62 1014.23 1013.80 1013.35 1012.85 1012.31 1011.73 1011.10 1010.44 1009.74 1009.01 1008.25 1007.46 1006.66 1005.84 1005.01 1004.16 1003.31 1002.44 1001.55 1000.66 999.76 998.86 997.97 997.09 996.23 995.39 994.58 993.79 993.03 992.28 991.55 990.85 990.17
1017.21 1016.93 1016.64 1016.33 1016.01 1015.69 1015.38 1015.05 1014.71 1014.34 1013.94 1013.50 1013.01 1012.47 1011.88 1011.26 1010.59 1009.89 1009.17 1008.42 1007.66 1006.88 1006.09 1005.27 1004.43 1003.57 1002.69 1001.78 1000.84 999.90 998.94 997.99 997.06 996.14 995.26 994.40 993.56 992.75 991.96 991.19 990.43 989.69 988.99
1017.06 1016.75 1016.42 1016.08 1015.74 1015.40 1015.07 1014.73 1014.37 1013.99 1013.57 1013.09 1012.57 1011.99 1011.36 1010.68 1009.97 1009.24 1008.49 1007.74 1006.98 1006.21 1005.43 1004.62 1003.80 1002.94 1002.04 1001.10 1000.14 999.15 998.16 997.16 996.19 995.25 994.33 993.45 992.60 991.77 990.96 990.16 989.38 988.61 987.87
1016.91 1016.58 1016.22 1015.85 1015.48 1015.11 1014.75 1014.38 1014.00 1013.58 1013.12 1012.61 1012.04 1011.41 1010.74 1010.02 1009.27 1008.51 1007.74 1006.98 1006.22 1005.47 1004.71 1003.93 1003.12 1002.27 1001.37 1000.42 999.44 998.43 997.40 996.38 995.38 994.40 993.47 992.57 991.70 990.85 990.02 989.19 988.37 987.57 986.79
1016.79 1016.44 1016.05 1015.65 1015.25 1014.85 1014.45 1014.04 1013.61 1013.15 1012.64 1012.08 1011.46 1010.79 1010.06 1009.30 1008.52 1007.73 1006.95 1006.19 1005.45 1004.71 1003.97 1003.22 1002.43 1001.59 1000.70 999.75 998.76 997.72 996.68 995.63 994.60 993.61 992.65 991.73 990.85 989.98 989.12 988.26 987.39 986.54 985.70
1016.70 1016.33 1015.92 1015.50 1015.07 1014.63 1014.18 1013.72 1013.24 1012.72 1012.16 1011.55 1010.87 1010.15 1009.38 1008.59 1007.78 1006.98 1006.19 1005.43 1004.70 1003.98 1003.26 1002.52 1001.75 1000.93 1000.04 999.09 998.09 997.04 995.98 994.91 993.86 992.85 991.88 990.94 990.03 989.14 988.25 987.34 986.43 985.51 984.61
1016.61 1016.23 1015.82 1015.37 1014.91 1014.43 1013.94 1013.43 1012.90 1012.32 1011.71 1011.04 1010.32 1009.56 1008.76 1007.94 1007.11 1006.30 1005.51 1004.76 1004.03 1003.32 1002.61 1001.88 1001.12 1000.29 999.40 998.45 997.43 996.37 995.29 994.21 993.15 992.13 991.14 990.19 989.26 988.34 987.41 986.46 985.49 984.51 983.53
Thickness
5697 5695 5693 5692 5690 5689 5688 5687 5685 5684 5683 5683 5682 5681 5681 5680 5680 5681 5680 5680 5679 5677 5675 5673 5672 5670 5669 5668 5667 5667 5666 5665 5664 5663 5662 5661 5660 5658 5657 5656 5654 5652 5651
5692 5689 5687 5685 5684 5683 5681 5680 5678 5677 5675 5675 5674 5673 5672 5672 5673 5673 5673 5673 5672 5672 5670 5668 5667 5665 5663 5662 5662 5661 5661 5660 5659 5658 5657 5655 5654 5653 5652 5651 5650 5648 5647
5685 5682 5679 5677 5675 5675 5673 5671 5669 5667 5666 5665 5664 5664 5664 5663 5663 5664 5664 5664 5665 5665 5664 5662 5660 5658 5656 5655 5654 5654 5654 5653 5652 5651 5650 5649 5648 5647 5646 5645 5645 5644 5643
5678 5674 5670 5667 5666 5664 5662 5659 5657 5654 5653 5652 5653 5654 5654 5654 5655 5655 5656 5656 5655 5655 5655 5653 5652 5650 5648 5646 5645 5644 5644 5643 5643 5642 5641 5641 5640 5640 5639 5640 5640 5640 5639
5667 5664 5660 5656 5654 5652 5649 5647 5644 5642 5641 5641 5642 5644 5644 5645 5646 5646 5646 5645 5643 5642 5641 5639 5638 5637 5635 5634 5632 5631 5630 5629 5629 5629 5629 5629 5629 5630 5631 5632 5633 5634 5634
5655 5652 5648 5645 5642 5639 5636 5633 5631 5629 5628 5627 5630 5631 5632 5635 5635 5634 5631 5630 5629 5628 5626 5624 5621 5619 5618 5616 5615 5614 5613 5612 5611 5611 5612 5613 5615 5617 5619 5621 5622 5624 5626
5643 5639 5636 5632 5629 5626 5622 5620 5617 5615 5614 5613 5614 5616 5621 5624 5623 5620 5617 5614 5613 5611 5608 5605 5602 5600 5598 5596 5594 5592 5592 5592 5592 5593 5593 5594 5596 5598 5601 5604 5608 5611 5615
5631 5628 5623 5620 5616 5613 5609 5606 5603 5600 5598 5596 5594 5595 5599 5605 5608 5602 5599 5597 5595 5592 5589 5586 5583 5580 5577 5575 5572 5569 5567 5567 5568 5570 5571 5572 5573 5575 5579 5583 5588 5592 5597
5620 5616 5612 5608 5604 5600 5596 5592 5588 5585 5582 5581 5577 5572 5568 5571 5579 5586 5584 5579 5576 5572 5568 5566 5564 5560 5556 5553 5549 5546 5543 5542 5543 5545 5547 5548 5549 5551 5553 5557 5562 5567 5573
5608 5605 5601 5597 5593 5588 5584 5580 5576 5571 5567 5564 5561 5556 5548 5545 5545 5555 5558 5556 5552 5550 5546 5543 5539 5535 5530 5527 5524 5521 5519 5518 5518 5518 5519 5519 5521 5522 5525 5528 5532 5537 5543
5598 5593 5590 5586 5581 5577 5572 5568 5563 5558 5553 5547 5542 5538 5535 5530 5525 5523 5530 5532 5529 5525 5521 5517 5512 5508 5503 5499 5495 5493 5490 5488 5487 5486 5486 5486 5487 5489 5491 5495 5500 5505 5511
5587 5582 5579 5574 5570 5565 5561 5556 5551 5545 5539 5533 5526 5520 5514 5509 5505 5501 5504 5509 5508 5505 5498 5492 5485 5479 5473 5468 5462 5458 5454 5452 5451 5450 5450 5450 5450 5452 5455 5458 5464 5470 5478
5574 5570 5567 5562 5558 5553 5549 5543 5537 5531 5525 5518 5511 5505 5499 5491 5485 5479 5477 5481 5485 5486 5478 5471 5460 5452 5442 5433 5426 5420 5417 5414 5413 5412 5413 5414 5415 5416 5418 5422 5428 5435 5444
5563 5559 5554 5550 5545 5540 5535 5529 5522 5516 5510 5502 5496 5489 5482 5475 5467 5460 5452 5448 5453 5461 5458 5451 5439 5425 5413 5401 5393 5386 5382 5380 5378 5378 5379 5380 5382 5384 5388 5392 5398 5405 5414
5553 5547 5542 5537 5532 5526 5520 5514 5507 5500 5493 5486 5479 5472 5465 5458 5450 5441 5431 5419 5409 5416 5431 5428 5414 5403 5387 5374 5363 5355 5352 5350 5349 5350 5351 5352 5354 5359 5364 5369 5374 5381 5389
5541 5535 5529 5523 5518 5511 5505 5498 5490 5483 5476 5469 5461 5454 5447 5439 5431 5420 5409 5397 5382 5370 5381 5396 5387 5377 5365 5353 5341 5330 5325 5324 5326 5326 5327 5329 5333 5337 5342 5348 5353 5360 5368
5528 5522 5516 5509 5503 5496 5489 5482 5474 5467 5460 5451 5442 5434 5427 5417 5408 5397 5385 5373 5359 5343 5337 5355 5356 5351 5342 5333 5328 5317 5308 5305 5307 5308 5309 5311 5315 5319 5324 5330 5336 5342 5349
5515 5508 5502 5494 5487 5481 5473 5466 5459 5451 5442 5432 5422 5413 5404 5394 5383 5372 5360 5349 5337 5324 5311 5313 5326 5324 5321 5312 5308 5304 5299 5294 5292 5293 5294 5297 5300 5303 5307 5312 5318 5324 5331
5502 5495 5487 5479 5472 5465 5458 5451 5443 5433 5422 5410 5399 5389 5379 5368 5359 5348 5337 5326 5316 5308 5297 5290 5296 5298 5299 5294 5290 5291 5288 5284 5281 5280 5282 5284 5286 5289 5292 5297 5302 5309 5315
5488 5481 5473 5465 5458 5450 5443 5435 5426 5415 5404 5391 5378 5366 5355 5344 5335 5325 5317 5308 5298 5290 5283 5276 5277 5279 5279 5278 5272 5274 5280 5278 5274 5270 5271 5274 5276 5279 5282 5285 5289 5294 5301
5475 5467 5460 5452 5443 5435 5428 5419 5409 5398 5384 5372 5359 5347 5336 5326 5317 5308 5299 5291 5282 5273 5266 5262 5262 5264 5264 5262 5260 5260 5265 5271 5271 5263 5266 5271 5269 5273 5275 5276 5279 5283 5289
5463 5455 5447 5439 5430 5421 5411 5401 5391 5379 5365 5351 5340 5330 5320 5311 5302 5296 5287 5278 5268 5258 5251 5248 5249 5249 5252 5250 5251 5252 5254 5260 5271 5266 5261 5271 5266 5269 5271 5272 5275 5279 5284
5451 5443 5435 5426 5416 5404 5394 5384 5372 5360 5345 5331 5319 5311 5304 5297 5287 5279 5275 5269 5260 5250 5243 5238 5240 5241 5242 5244 5244 5248 5250 5253 5260 5262 5259 5271 5269 5269 5271 5272 5274 5277 5282
5438 5430 5421 5411 5400 5389 5378 5366 5354 5342 5327 5315 5303 5294 5288 5282 5273 5266 5262 5257 5250 5245 5239 5237 5235 5236 5237 5240 5240 5244 5248 5254 5259 5258 5256 5264 5271 5271 5273 5273 5274 5278 5283
5425 5416 5407 5396 5386 5374 5360 5347 5335 5323 5312 5303 5293 5283 5273 5267 5261 5254 5248 5245 5245 5243 5240 5237 5236 5236 5238 5239 5240 5242 5246 5250 5259 5261 5258 5260 5270 5274 5277 5278 5281 5285 5289
5412 5403 5393 5381 5369 5356 5343 5329 5315 5304 5296 5291 5284 5275 5264 5255 5250 5245 5241 5239 5240 5240 5240 5240 5239 5239 5239 5239 5240 5240 5241 5246 5254 5262 5264 5264 5270 5273 5284 5289 5290 5291 5295